| time (UTC) | temp F | wind direction | speed MPH | gust MPH | rain 1hr in | rain 24hr in | rain mn in | humidity % | barometer mb |
| 20260510224531 | 48 | 65 | 0.0 | 0.0 | 0.00 | 0.01 | 0.01 | 75 | 1011.1 |
| 20260510223025 | 48 | 2 | 0.0 | 2.0 | 0.00 | 0.01 | 0.01 | 74 | 1011.2 |
| 20260510221524 | 48 | 98 | 0.0 | 1.0 | 0.00 | 0.01 | 0.01 | 73 | 1011.4 |
| 20260510220024 | 49 | 79 | 0.0 | 0.0 | 0.00 | 0.01 | 0.01 | 71 | 1011.7 |
| 20260510214519 | 49 | 306 | 0.0 | 1.0 | 0.00 | 0.01 | 0.01 | 71 | 1012.0 |
| 20260510213018 | 49 | 305 | 0.0 | 1.0 | 0.00 | 0.01 | 0.01 | 72 | 1012.2 |
| 20260510211517 | 49 | 345 | 0.0 | 1.0 | 0.00 | 0.01 | 0.01 | 73 | 1012.4 |
| 20260510210015 | 49 | 333 | 0.0 | 1.0 | 0.00 | 0.01 | 0.01 | 73 | 1012.6 |
| 20260510204515 | 49 | 172 | 0.0 | 0.0 | 0.00 | 0.01 | 0.01 | 73 | 1012.9 |
| 20260510203010 | 49 | 22 | 0.0 | 0.0 | 0.00 | 0.01 | 0.01 | 72 | 1013.1 |
| 20260510201508 | 48 | 17 | 0.0 | 0.0 | 0.00 | 0.01 | 0.01 | 73 | 1013.3 |
| 20260510200007 | 49 | 58 | 0.0 | 0.0 | 0.00 | 0.01 | 0.01 | 73 | 1013.3 |
| 20260510194505 | 49 | 118 | 0.0 | 0.0 | 0.00 | 0.01 | 0.01 | 71 | 1013.5 |
| 20260510193005 | 51 | 352 | 0.0 | 0.0 | 0.00 | 0.01 | 0.01 | 68 | 1013.6 |
| 20260510191502 | 51 | 320 | 0.0 | 0.0 | 0.00 | 0.01 | 0.01 | 66 | 1013.8 |
| 20260510190001 | 52 | 315 | 0.0 | 0.0 | 0.00 | 0.01 | 0.01 | 64 | 1014.0 |
| 20260510184602 | 53 | 323 | 0.0 | 3.0 | 0.00 | 0.01 | 0.01 | 62 | 1014.0 |
| 20260510183059 | 52 | 314 | 0.0 | 1.0 | 0.00 | 0.01 | 0.01 | 66 | 1014.0 |
| 20260510181610 | 52 | 146 | 0.0 | 0.0 | 0.00 | 0.01 | 0.01 | 67 | 1014.3 |
| 20260510180107 | 52 | 129 | 0.0 | 0.0 | 0.00 | 0.01 | 0.01 | 66 | 1014.5 |
| 20260510174553 | 52 | 159 | 0.0 | 0.0 | 0.00 | 0.01 | 0.01 | 66 | 1014.8 |
| 20260510173052 | 52 | 146 | 0.0 | 0.0 | 0.00 | 0.01 | 0.01 | 65 | 1014.9 |
| 20260510171550 | 53 | 341 | 0.0 | 0.0 | 0.00 | 0.01 | 0.01 | 64 | 1015.2 |
| 20260510170059 | 54 | 340 | 0.0 | 0.0 | 0.00 | 0.01 | 0.01 | 61 | 1015.4 |
| 20260510164555 | 54 | 337 | 0.0 | 0.0 | 0.00 | 0.01 | 0.01 | 57 | 1015.6 |
| 20260510163046 | 54 | 12 | 0.0 | 0.0 | 0.00 | 0.01 | 0.01 | 59 | 1015.8 |
| 20260510161547 | 55 | 321 | 0.0 | 0.0 | 0.00 | 0.01 | 0.01 | 55 | 1016.0 |
| 20260510160051 | 55 | 100 | 0.0 | 0.0 | 0.00 | 0.01 | 0.01 | 56 | 1016.4 |
| 20260510154540 | 55 | 319 | 0.0 | 1.0 | 0.00 | 0.01 | 0.01 | 55 | 1016.6 |
| 20260510153034 | 56 | 122 | 0.0 | 0.0 | 0.00 | 0.01 | 0.01 | 53 | 1016.8 |
| 20260510151530 | 55 | 325 | 0.0 | 1.0 | 0.00 | 0.01 | 0.01 | 55 | 1017.3 |
| 20260510150026 | 54 | 345 | 0.0 | 0.0 | 0.00 | 0.01 | 0.01 | 58 | 1017.5 |
| 20260510144526 | 55 | 340 | 0.0 | 0.0 | 0.00 | 0.01 | 0.01 | 55 | 1017.8 |
| 20260510143020 | 55 | 158 | 0.0 | 0.0 | 0.00 | 0.01 | 0.01 | 62 | 1018.1 |
| 20260510141516 | 54 | 125 | 0.0 | 0.0 | 0.00 | 0.01 | 0.01 | 60 | 1018.4 |
| 20260510140015 | 53 | 193 | 0.0 | 0.0 | 0.00 | 0.01 | 0.01 | 61 | 1018.7 |
| 20260510134511 | 53 | 136 | 0.0 | 0.0 | 0.00 | 0.01 | 0.01 | 64 | 1019.0 |
| 20260510133009 | 53 | 79 | 0.0 | 0.0 | 0.00 | 0.01 | 0.01 | 66 | 1019.1 |
| 20260510131506 | 53 | 143 | 0.0 | 0.0 | 0.00 | 0.01 | 0.01 | 62 | 1019.4 |
| 20260510130012 | 53 | 24 | 0.0 | 0.0 | 0.00 | 0.01 | 0.01 | 66 | 1019.6 |
| 20260510124504 | 53 | 100 | 0.0 | 0.0 | 0.00 | 0.01 | 0.01 | 63 | 1019.9 |
| 20260510123104 | 53 | 119 | 0.0 | 0.0 | 0.00 | 0.01 | 0.01 | 70 | 1020.2 |
| 20260510121555 | 51 | 96 | 0.0 | 0.0 | 0.00 | 0.01 | 0.01 | 71 | 1020.4 |
| 20260510120054 | 51 | 210 | 0.0 | 0.0 | 0.00 | 0.01 | 0.01 | 72 | 1020.7 |
| 20260510114547 | 52 | 13 | 0.0 | 0.0 | 0.00 | 0.01 | 0.01 | 68 | 1020.8 |
| 20260510113052 | 51 | 20 | 0.0 | 0.0 | 0.00 | 0.01 | 0.01 | 68 | 1021.0 |
| 20260510111600 | 50 | 172 | 0.0 | 0.0 | 0.00 | 0.01 | 0.01 | 68 | 1021.2 |
| 20260510110038 | 49 | 344 | 0.0 | 0.0 | 0.00 | 0.01 | 0.01 | 71 | 1021.4 |
| 20260510104542 | 50 | 338 | 0.0 | 0.0 | 0.00 | 0.01 | 0.01 | 72 | 1021.6 |
| 20260510103037 | 48 | 3 | 0.0 | 0.0 | 0.00 | 0.01 | 0.01 | 76 | 1021.8 |
| 20260510101532 | 48 | 4 | 0.0 | 0.0 | 0.00 | 0.01 | 0.01 | 74 | 1021.9 |
| 20260510100030 | 49 | 313 | 0.0 | 0.0 | 0.01 | 0.01 | 0.01 | 72 | 1022.1 |
| 20260510094530 | 49 | 20 | 0.0 | 0.0 | 0.01 | 0.01 | 0.01 | 73 | 1022.1 |
| 20260510093027 | 49 | 22 | 0.0 | 2.0 | 0.01 | 0.01 | 0.01 | 76 | 1022.3 |
| 20260510091542 | 48 | 11 | 0.0 | 1.0 | 0.01 | 0.01 | 0.01 | 80 | 1022.4 |
| 20260510090019 | 47 | 20 | 0.0 | 2.0 | 0.00 | 0.00 | 0.00 | 84 | 1022.5 |
| 20260510084514 | 46 | 15 | 0.0 | 1.0 | 0.00 | 0.00 | 0.00 | 88 | 1022.7 |
| 20260510083012 | 45 | 354 | 0.0 | 3.0 | 0.00 | 0.00 | 0.00 | 91 | 1022.7 |
| 20260510081525 | 45 | 12 | 0.0 | 4.0 | 0.00 | 0.00 | 0.00 | 92 | 1022.8 |
| 20260510080009 | 44 | 6 | 0.0 | 2.0 | 0.00 | 0.00 | 0.00 | 94 | 1022.8 |
| 20260510074507 | 44 | 314 | 0.0 | 2.0 | 0.00 | 0.00 | 0.00 | 96 | 1022.8 |
| 20260510073100 | 42 | 313 | 0.0 | 1.0 | 0.00 | 0.00 | 0.00 | 96 | 1023.0 |
| 20260510071559 | 42 | 297 | 0.0 | 1.0 | 0.00 | 0.00 | 0.00 | 96 | 1023.0 |
| 20260510070157 | 41 | 17 | 0.0 | 1.0 | 0.00 | 0.00 | 0.00 | 96 | 1023.0 |
| 20260510064608 | 40 | 345 | 0.0 | 1.0 | 0.00 | 0.00 | 0.00 | 96 | 1023.2 |
| 20260510063054 | 39 | 360 | 0.0 | 1.0 | 0.00 | 0.00 | 0.00 | 96 | 1023.3 |
| 20260510061553 | 38 | 343 | 0.0 | 1.0 | 0.00 | 0.00 | 0.00 | 96 | 1023.3 |
| 20260510060053 | 37 | 343 | 0.0 | 0.0 | 0.00 | 0.00 | 0.00 | 96 | 1023.4 |
| 20260510054550 | 35 | 343 | 0.0 | 0.0 | 0.00 | 0.00 | 0.00 | 96 | 1023.5 |
| 20260510053050 | 34 | 343 | 0.0 | 0.0 | 0.00 | 0.00 | 0.00 | 96 | 1023.6 |
| 20260510051552 | 34 | 343 | 0.0 | 0.0 | 0.00 | 0.00 | 0.00 | 96 | 1023.7 |
| 20260510050057 | 34 | 343 | 0.0 | 0.0 | 0.00 | 0.00 | 0.00 | 96 | 1023.7 |
| 20260510044554 | 34 | 343 | 0.0 | 0.0 | 0.00 | 0.00 | 0.00 | 96 | 1023.6 |
| 20260510043046 | 34 | 343 | 0.0 | 0.0 | 0.00 | 0.00 | 0.00 | 96 | 1023.6 |
| 20260510041550 | 34 | 343 | 0.0 | 0.0 | 0.00 | 0.00 | 0.00 | 96 | 1023.6 |
| 20260510040043 | 34 | 343 | 0.0 | 0.0 | 0.00 | 0.00 | 0.00 | 96 | 1023.7 |
| 20260510034545 | 35 | 343 | 0.0 | 0.0 | 0.00 | 0.00 | 0.00 | 96 | 1023.7 |
| 20260510033040 | 35 | 343 | 0.0 | 0.0 | 0.00 | 0.00 | 0.00 | 96 | 1023.8 |
| 20260510031544 | 35 | 343 | 0.0 | 0.0 | 0.00 | 0.00 | 0.00 | 96 | 1023.8 |
| 20260510030038 | 36 | 343 | 0.0 | 0.0 | 0.00 | 0.00 | 0.00 | 96 | 1023.7 |
| 20260510024538 | 37 | 343 | 0.0 | 0.0 | 0.00 | 0.00 | 0.00 | 96 | 1023.5 |
| 20260510023032 | 37 | 343 | 0.0 | 0.0 | 0.00 | 0.00 | 0.00 | 96 | 1023.5 |
| 20260510021531 | 37 | 343 | 0.0 | 0.0 | 0.00 | 0.00 | 0.00 | 96 | 1023.6 |
| 20260510020030 | 37 | 343 | 0.0 | 0.0 | 0.00 | 0.00 | 0.00 | 96 | 1023.6 |
| 20260510014530 | 37 | 343 | 0.0 | 0.0 | 0.00 | 0.00 | 0.00 | 96 | 1023.6 |
| 20260510013025 | 38 | 343 | 0.0 | 0.0 | 0.00 | 0.00 | 0.00 | 96 | 1023.7 |
| 20260510011524 | 38 | 343 | 0.0 | 0.0 | 0.00 | 0.00 | 0.00 | 96 | 1023.8 |
| 20260510010022 | 39 | 343 | 0.0 | 0.0 | 0.00 | 0.00 | 0.00 | 96 | 1023.7 |
| 20260510004519 | 39 | 343 | 0.0 | 0.0 | 0.00 | 0.00 | 0.00 | 96 | 1023.8 |
| 20260510003017 | 39 | 345 | 0.0 | 0.0 | 0.00 | 0.00 | 0.00 | 96 | 1024.0 |
| 20260510001515 | 40 | 345 | 0.0 | 0.0 | 0.00 | 0.00 | 0.00 | 96 | 1024.0 |
| 20260510000013 | 40 | 344 | 0.0 | 0.0 | 0.00 | 0.00 | 0.00 | 96 | 1024.0 |
| 20260509234518 | 41 | 324 | 0.0 | 0.0 | 0.00 | 0.00 | 0.00 | 96 | 1024.1 |
| 20260509233016 | 41 | 323 | 0.0 | 0.0 | 0.00 | 0.00 | 0.00 | 96 | 1024.1 |
| 20260509231505 | 42 | 317 | 0.0 | 0.0 | 0.00 | 0.00 | 0.00 | 96 | 1024.1 |
| 20260509230004 | 42 | 315 | 0.0 | 0.0 | 0.00 | 0.00 | 0.00 | 96 | 1024.1 |